Weather History for Middletown, OH

Change the Weather History Date:

Monday, April 28, 2014

  Actual Average (KDAY) Record (KDAY)
Temperature  
Mean Temperature 60 °F 56 °F  
Max Temperature 72 °F 66 °F 85 °F (1894)
Min Temperature 48 °F 46 °F 29 °F (1934)
Degree Days  
Heating Degree Days 5 10  
Month to date heating degree days 394  
Since 1 July heating degree days 5433  
Cooling Degree Days 0 1  
Month to date cooling degree days 8  
Year to date cooling degree days 8  
Growing Degree Days 10 (Base 50)    
Moisture  
Dew Point 47 °F    
Average Humidity 65    
Maximum Humidity 85    
Minimum Humidity 32    
Precipitation  
Precipitation 0.00 in 0.14 in 1.26 in (1958)
Month to date precipitation 3.81  
Year to date precipitation 12.10  
Snow  
Snow 0.00 in 0.00 in 0.00 in ()
Month to date snowfall 0.6  
Since 1 July snowfall 23.3  
Snow Depth -    
Sea Level Pressure  
Sea Level Pressure 29.77 in    
Wind  
Wind Speed 7 mph (SE)    
Max Wind Speed 12 mph    
Max Gust Speed 18 mph    
Visibility 10 miles    
Events Rain    
T = Trace of Precipitation, MM = Missing Value Source: NWS Daily Summary

Daily Weather History Graph

Daily Weather History Graph

Search for Another Location

Airport:

Trip Planner

Search our weather history database for the weather conditions in past years. The results will help you decide how hot, cold, wet, or windy it might be!

Date:

Astronomy

Apr. 28, 2014 Rise Set
Actual Time 6:42 AM EDT 8:28 PM EDT
Civil Twilight 6:13 AM EDT 8:57 PM EDT
Nautical Twilight 5:38 AM EDT 9:32 PM EDT
Astronomical Twilight 5:01 AM EDT 10:09 PM EDT
Moon 6:19 AM EDT (4/28) 8:05 PM EDT (4/28)
Length of Visible Light 14h 43m
Length of Day
13h 46m
Waning Crescent, 0% of the Moon is Illuminated
Apr 28
Waning Crescent
Apr 29
New
May 6
First Quarter
May 14
Full
May 21
Last Quarter

Hourly Weather History & Observations

Time (EDT) Temp. Dew Point Humidity Pressure Visibility Wind Dir Wind Speed Gust Speed Precip Events Conditions
12:15 AM 59.0 °F 30.6 °F 34% 29.89 in 10.0 mi East 8.1 mph 16.1 mph N/A   Clear
12:35 AM 59.2 °F 28.9 °F 32% 29.91 in 10.0 mi Calm Calm - N/A   Scattered Clouds
12:55 AM 57.7 °F 30.4 °F 35% 29.92 in 10.0 mi ESE 4.6 mph - N/A   Scattered Clouds
1:15 AM 59.0 °F 30.0 °F 33% 29.93 in 10.0 mi SE 5.8 mph - N/A   Scattered Clouds
1:35 AM 57.7 °F 32.9 °F 39% 29.93 in 10.0 mi East 5.8 mph - N/A   Mostly Cloudy
1:55 AM 55.4 °F 34.5 °F 45% 29.92 in 10.0 mi ENE 5.8 mph - N/A   Mostly Cloudy
2:15 AM 55.8 °F 34.7 °F 45% 29.91 in 10.0 mi ENE 8.1 mph - N/A   Mostly Cloudy
2:35 AM 57.7 °F 34.3 °F 41% 29.90 in 10.0 mi ENE 8.1 mph - N/A   Overcast
2:55 AM 57.7 °F 34.9 °F 42% 29.89 in 10.0 mi ENE 8.1 mph - N/A   Scattered Clouds
3:15 AM 57.7 °F 34.7 °F 42% 29.86 in 10.0 mi ENE 11.5 mph - N/A   Mostly Cloudy
3:35 AM 57.7 °F 34.9 °F 42% 29.84 in 10.0 mi NE 8.1 mph - N/A   Mostly Cloudy
3:55 AM 57.7 °F 34.0 °F 41% 29.85 in 10.0 mi ENE 9.2 mph - N/A   Mostly Cloudy
4:15 AM 57.7 °F 34.2 °F 41% 29.82 in 10.0 mi NE 10.4 mph - N/A   Scattered Clouds
4:35 AM 57.7 °F 33.4 °F 40% 29.81 in 10.0 mi ENE 8.1 mph - N/A   Clear
4:55 AM 57.7 °F 33.8 °F 41% 29.84 in 10.0 mi ESE 4.6 mph - N/A   Mostly Cloudy
5:15 AM 57.7 °F 32.9 °F 39% 29.84 in 10.0 mi East 3.5 mph - N/A   Overcast
5:35 AM 57.7 °F 34.7 °F 42% 29.82 in 10.0 mi ENE 6.9 mph - N/A   Overcast
5:55 AM 55.6 °F 33.8 °F 44% 29.80 in 10.0 mi ENE 8.1 mph - N/A   Mostly Cloudy
6:15 AM 56.5 °F 33.8 °F 42% 29.79 in 10.0 mi ENE 9.2 mph - N/A   Overcast
6:35 AM 55.4 °F 33.3 °F 43% 29.79 in 10.0 mi East 9.2 mph - N/A   Mostly Cloudy
6:55 AM 55.6 °F 32.7 °F 42% 29.78 in 10.0 mi ENE 10.4 mph - N/A Rain Light Rain
7:15 AM 53.6 °F 37.8 °F 55% 29.78 in 10.0 mi NE 6.9 mph - N/A Rain Light Rain
7:35 AM 53.2 °F 39.2 °F 59% 29.80 in 7.0 mi Calm Calm - N/A Rain Rain
7:55 AM 52.7 °F 42.8 °F 69% 29.78 in 5.0 mi NE 8.1 mph - N/A Rain Rain
8:15 AM 52.7 °F 44.6 °F 74% 29.79 in 7.0 mi NNE 3.5 mph - N/A Rain Rain
8:35 AM 51.3 °F 45.1 °F 80% 29.80 in 5.0 mi Calm Calm - N/A Rain Light Rain
8:55 AM 49.8 °F 44.6 °F 82% 29.79 in 3.0 mi ENE 8.1 mph - N/A Rain Rain
9:15 AM 48.7 °F 43.9 °F 83% 29.77 in 4.0 mi East 9.2 mph 18.4 mph N/A   Unknown
9:55 AM 50.2 °F 45.9 °F 85% 29.74 in 5.0 mi ENE 6.9 mph - N/A Rain Light Rain
10:15 AM 50.2 °F 45.7 °F 85% 29.77 in 10.0 mi WNW 8.1 mph - N/A Rain Light Rain
10:55 AM 52.7 °F 47.7 °F 83% 29.77 in 10.0 mi SW 6.9 mph - N/A   Overcast
11:15 AM 52.7 °F 47.3 °F 82% 29.76 in 10.0 mi SE 3.5 mph - N/A   Overcast
11:35 AM 52.7 °F 47.3 °F 82% 29.76 in 10.0 mi ESE 6.9 mph - N/A   Overcast
11:55 AM 52.7 °F 47.5 °F 82% 29.76 in 10.0 mi Calm Calm - N/A   Overcast
12:15 PM 55.4 °F 50.0 °F 82% 29.75 in 10.0 mi Calm Calm - N/A   Overcast
12:35 PM 55.4 °F 50.2 °F 83% 29.74 in 10.0 mi Calm Calm - N/A   Overcast
12:55 PM 57.7 °F 52.3 °F 82% 29.75 in 10.0 mi Calm Calm - N/A   Overcast
1:15 PM 59.0 °F 52.9 °F 80% 29.77 in 10.0 mi Calm Calm - N/A   Overcast
1:35 PM 59.0 °F 52.9 °F 80% 29.76 in 10.0 mi Calm Calm - N/A   Overcast
1:55 PM 60.4 °F 54.3 °F 80% 29.74 in 10.0 mi Calm Calm - N/A   Overcast
2:15 PM 62.6 °F 56.3 °F 80% 29.72 in 10.0 mi NE 5.8 mph - N/A   Overcast
2:35 PM 65.7 °F 59.0 °F 79% 29.70 in 10.0 mi ENE 5.8 mph - N/A   Overcast
2:55 PM 67.6 °F 60.4 °F 78% 29.70 in 10.0 mi SSE 9.2 mph - N/A   Scattered Clouds
3:15 PM 67.6 °F 59.9 °F 76% 29.71 in 10.0 mi South 6.9 mph - N/A   Scattered Clouds
3:35 PM 68.7 °F 60.1 °F 74% 29.74 in 10.0 mi SSW 10.4 mph - N/A   Clear
3:55 PM 70.2 °F 61.2 °F 73% 29.76 in 10.0 mi SW 9.2 mph - N/A   Clear
4:35 PM 72.3 °F 59.2 °F 63% 29.74 in 10.0 mi WSW 10.4 mph - N/A   Clear
4:55 PM 70.2 °F 57.2 °F 63% 29.74 in 10.0 mi SW 9.2 mph - N/A   Light Drizzle
5:15 PM 70.7 °F 57.6 °F 63% 29.73 in 10.0 mi WSW 4.6 mph - N/A   Scattered Clouds
5:35 PM 72.7 °F 59.0 °F 62% 29.72 in 10.0 mi SW 5.8 mph - N/A   Scattered Clouds
5:55 PM 71.1 °F 57.6 °F 62% 29.70 in 10.0 mi WSW 5.8 mph - N/A   Mostly Cloudy
6:15 PM 70.2 °F 56.7 °F 62% 29.70 in 10.0 mi SW 5.8 mph - N/A   Overcast
6:35 PM 67.6 °F 54.7 °F 63% 29.72 in 10.0 mi SW 10.4 mph - N/A   Overcast
6:55 PM 67.6 °F 55.9 °F 66% 29.72 in 10.0 mi SW 9.2 mph - N/A   Overcast
7:15 PM 67.6 °F 57.0 °F 69% 29.72 in 10.0 mi South 11.5 mph - N/A Rain Light Rain
7:35 PM 67.6 °F 58.8 °F 73% 29.72 in 10.0 mi South 9.2 mph - N/A Rain Light Rain
7:55 PM 66.2 °F 58.1 °F 75% 29.72 in 10.0 mi South 11.5 mph - N/A Rain Light Rain
8:15 PM 65.3 °F 58.1 °F 77% 29.69 in 10.0 mi SSE 8.1 mph - N/A Rain Light Rain
8:35 PM 65.3 °F 58.6 °F 79% 29.69 in 10.0 mi South 4.6 mph - N/A   Scattered Clouds
8:55 PM 63.7 °F 57.6 °F 80% 29.70 in 10.0 mi South 8.1 mph - N/A Rain Light Rain
9:15 PM 62.6 °F 56.8 °F 81% 29.70 in 10.0 mi South 11.5 mph 16.1 mph N/A Rain Light Rain
9:35 PM 62.6 °F 57.2 °F 82% 29.69 in 10.0 mi SSE 5.8 mph - N/A   Scattered Clouds
9:55 PM 62.4 °F 56.7 °F 81% 29.68 in 10.0 mi South 9.2 mph - N/A Rain Light Rain
10:15 PM 61.0 °F 55.4 °F 82% 29.68 in 10.0 mi SSE 10.4 mph - N/A Rain Light Rain
10:55 PM 60.8 °F 55.4 °F 82% 29.68 in 10.0 mi South 10.4 mph 16.1 mph N/A   Mostly Cloudy
11:15 PM 61.3 °F 55.9 °F 82% 29.68 in 10.0 mi South 10.4 mph - N/A   Overcast
11:35 PM 62.4 °F 56.8 °F 82% 29.69 in 10.0 mi South 9.2 mph - N/A   Overcast
11:55 PM 61.3 °F 55.6 °F 81% 29.68 in 10.0 mi SSE 8.1 mph - N/A Rain Light Rain